Flag for Netherlands Weather past 2 weeks in Zwolle, Netherlands

Now
57 °F

Passing clouds.


Feels Like: 55 °F
Forecast: 40 / 52 °F
Wind: 12 mph from Northeast

Location: Amsterdam Schiphol Airport

Current Time: Apr 18, 2015 at 5:31:35 PM

Latest Report: Apr 18, 2015 at 4:55 PM


Visibility: N/A

Pressure: 30.33 "Hg

Humidity: 44%

Dew point: 36 °F

Location of ZwolleLocation

Historic Weather in Zwolle — Graph

°F

Zwolle temperature yesterday

Maximum temperature yesterday: 52 °F (at 1:55 PM)
Minimum temperature yesterday: 43 °F (at 10:55 PM)
Average temperature yesterday: 48 °F

Past Weeks' High & Low Weather Summary

 TemperatureHumidityPressure
High70 °F (Apr 15, 3:25 PM)100% (Apr 5, 6:25 AM)30.63 "Hg (Apr 5, 6:25 AM)
Low30 °F (Apr 5, 4:55 AM)39% (Apr 14, 1:55 PM)29.89 "Hg (Apr 11, 3:55 AM)
Average48 °F76%30.26 "Hg
* Reported Apr 3 4:25 PM — Apr 18 4:25 PM, Zwolle, Weather by CustomWeather, © 2015

Note: Actual official high and low records may vary slightly from our data, if they occured in-between our weather recording intervals... More about our weather records

Advertising

Zwolle weather history for previous 24 hours

 ConditionsComfort  
Time TempWeatherWind HumidityBarometerVisibility
4:25 PM
Sat, Apr 18
57 °FPassing clouds.12 mph44%30.36 "HgN/A
3:55 PM57 °FPassing clouds.10 mph48%30.36 "HgN/A
3:25 PM57 °FPassing clouds.13 mph44%30.36 "HgN/A
2:55 PM57 °FPassing clouds.15 mph41%30.36 "HgN/A
2:25 PM57 °FPassing clouds.14 mph41%30.36 "HgN/A
1:55 PM57 °FPassing clouds.12 mph41%30.39 "HgN/A
1:25 PM55 °FPassing clouds.14 mph47%30.39 "HgN/A
12:55 PM55 °FPassing clouds.15 mph44%30.39 "HgN/A
12:25 PM55 °FPassing clouds.14 mph47%30.39 "HgN/A
11:55 AM54 °FPassing clouds.12 mph51%30.39 "HgN/A
11:25 AM54 °FPassing clouds.10 mph58%30.39 "HgN/A
10:55 AM54 °FPassing clouds.12 mph58%30.39 "HgN/A
10:25 AM52 °FPassing clouds.12 mph58%30.39 "HgN/A
9:55 AM52 °FPassing clouds.12 mph54%30.39 "HgN/A
9:25 AM50 °FPassing clouds.9 mph62%30.36 "HgN/A
8:55 AM48 °FPassing clouds.9 mph76%30.36 "HgN/A
8:25 AM46 °FSunny.8 mph82%30.36 "Hg10 mi
7:55 AM45 °FSunny.6 mph87%30.36 "Hg10 mi
7:25 AM43 °FPassing clouds.7 mph87%30.36 "HgN/A
6:55 AM41 °FPassing clouds.6 mph87%30.33 "HgN/A
6:25 AM41 °FPassing clouds.7 mph87%30.33 "HgN/A
5:55 AM41 °FPassing clouds.6 mph87%30.33 "HgN/A
5:25 AM41 °FPassing clouds.7 mph87%30.30 "HgN/A
4:55 AM39 °FClear.7 mph87%30.30 "Hg10 mi
4:25 AM39 °FClear.6 mph87%30.30 "Hg10 mi
3:55 AM41 °FClear.7 mph81%30.30 "Hg10 mi
3:25 AM41 °FClear.6 mph81%30.30 "Hg10 mi
2:55 AM39 °FClear.6 mph87%30.30 "Hg10 mi
2:25 AM41 °FClear.7 mph87%30.30 "Hg10 mi
1:55 AM41 °FClear.6 mph87%30.30 "Hg10 mi
1:25 AM41 °FClear.6 mph87%30.30 "Hg10 mi
12:55 AM41 °FClear.7 mph87%30.30 "Hg10 mi
12:25 AM43 °FClear.7 mph81%30.27 "Hg10 mi
11:55 PM
Fri, Apr 17
43 °FClear.8 mph81%30.27 "Hg10 mi
11:25 PM43 °FClear.9 mph81%30.27 "Hg10 mi
10:55 PM43 °FClear.9 mph81%30.24 "Hg10 mi
10:25 PM45 °FClear.9 mph76%30.24 "Hg10 mi
9:55 PM45 °FPassing clouds.12 mph76%30.24 "HgN/A
9:25 PM45 °FPassing clouds.12 mph76%30.21 "HgN/A
8:55 PM45 °FPassing clouds.9 mph76%30.21 "HgN/A
8:25 PM46 °FPassing clouds.13 mph66%30.21 "HgN/A
7:55 PM46 °FPassing clouds.14 mph66%30.18 "HgN/A
7:25 PM48 °FPassing clouds.14 mph58%30.18 "HgN/A
6:55 PM50 °FPassing clouds.14 mph54%30.15 "HgN/A
6:25 PM50 °FPassing clouds.15 mph58%30.15 "HgN/A
5:55 PM52 °FScattered clouds.15 mph54%30.15 "HgN/A
5:25 PM52 °FScattered clouds.13 mph54%30.15 "HgN/A
Weather by CustomWeather, © 2015

See weather overviewHow to use our weather pages